"Sample Date","Sample Time","Sample Value","Units","Flow Rate","Sample Interval","Number Channels","Micron Size 0","Counts/Channel 0","Micron Size 1","Counts/Channel 1","Micron Size 2","Counts/Channel 2","Micron Size 3","Counts/Channel 3","Micron Size 4","Counts/Channel 4","Micron Size 5","Counts/Channel 5","Micron Size 6","Counts/Channel 6","Micron Size 7","Counts/Channel 7","Micron Size 8","Counts/Channel 8","Micron Size 9","Counts/Channel 9","Micron Size 10","Counts/Channel 10","Micron Size 11","Counts/Channel 11","Micron Size 12","Counts/Channel 12","Micron Size 13","Counts/Channel 13","Micron Size 14","Counts/Channel 14","Micron Size 15","Counts/Channel 15","Micron Size 16","Counts/Channel 16","Micron Size 17","Counts/Channel 17","Micron Size 18","Counts/Channel 18","Micron Size 19","Counts/Channel 19","Micron Size 20","Counts/Channel 20","Micron Size 21","Counts/Channel 21","Micron Size 22","Counts/Channel 22","Micron Size 23","Counts/Channel 23","Micron Size 24","Counts/Channel 24","Micron Size 25","Counts/Channel 25","Micron Size 26","Counts/Channel 26","Micron Size 27","Counts/Channel 27","Micron Size 28","Counts/Channel 28","Micron Size 29","Counts/Channel 29","Micron Size 30","Counts/Channel 30","Micron Size 31","Counts/Channel 31"
"03/10/08","13:00:05",24022.000,"cc",28265.201,6.00,6,0.100,18804.000,0.200,1900.000,0.300,1314.000,0.500,1460.000,1.000,544.000,5.000,0
"03/10/08","13:00:11",24566.000,"cc",28351.221,6.00,6,0.100,18920.000,0.200,2041.000,0.300,1415.000,0.500,1560.000,1.000,630.000,5.000,0
"03/10/08","13:00:17",24362.000,"cc",28320.975,6.00,6,0.100,18814.000,0.200,2006.000,0.300,1358.000,0.500,1594.000,1.000,590.000,5.000,0
"03/10/08","13:00:23",24326.000,"cc",28368.900,6.00,6,0.100,18677.000,0.200,1853.000,0.300,1473.000,0.500,1626.000,1.000,697.000,5.000,0
"03/10/08","13:00:29",23955.000,"cc",28268.969,6.00,6,0.100,18610.000,0.200,1850.000,0.300,1349.000,0.500,1506.000,1.000,640.000,5.000,0
"03/10/08","13:00:35",24122.000,"cc",28354.316,6.00,6,0.100,18769.000,0.200,1869.000,0.300,1376.000,0.500,1508.000,1.000,600.000,5.000,0
"03/10/08","13:00:41",24269.000,"cc",28342.719,6.00,6,0.100,18765.000,0.200,1986.000,0.300,1368.000,0.500,1551.000,1.000,599.000,5.000,0
"03/10/08","13:00:47",23993.000,"cc",28299.223,6.00,6,0.100,18614.000,0.200,1850.000,0.300,1368.000,0.500,1555.000,1.000,606.000,5.000,0
"03/10/08","13:00:53",25115.000,"cc",28354.356,6.00,6,0.100,19101.000,0.200,2188.000,0.300,1502.000,0.500,1701.000,1.000,623.000,5.000,0
"03/10/08","13:00:59",23568.000,"cc",28335.957,6.00,6,0.100,18353.000,0.200,1919.000,0.300,1231.000,0.500,1448.000,1.000,617.000,5.000,0
"03/10/08","13:01:05",24261.000,"cc",28284.881,6.00,6,0.100,18868.000,0.200,1916.000,0.300,1330.000,0.500,1526.000,1.000,621.000,5.000,0
"03/10/08","13:01:11",23822.000,"cc",28334.789,6.00,6,0.100,18334.000,0.200,1959.000,0.300,1367.000,0.500,1531.000,1.000,631.000,5.000,0
"03/10/08","13:01:17",23728.000,"cc",28258.877,6.00,6,0.100,18664.000,0.200,1848.000,0.300,1262.000,0.500,1372.000,1.000,582.000,5.000,0
"03/10/08","13:01:23",24009.000,"cc",28288.027,6.00,6,0.100,18589.000,0.200,1915.000,0.300,1314.000,0.500,1557.000,1.000,634.000,5.000,0
"03/10/08","13:01:29",24365.000,"cc",28332.938,6.00,6,0.100,18683.000,0.200,2004.000,0.300,1432.000,0.500,1621.000,1.000,625.000,5.000,0
"03/10/08","13:01:35",23561.000,"cc",28346.836,6.00,6,0.100,18381.000,0.200,1882.000,0.300,1357.000,0.500,1460.000,1.000,481.000,5.000,0
"03/10/08","13:01:41",23770.000,"cc",28377.148,6.00,6,0.100,18312.000,0.200,1843.000,0.300,1418.000,0.500,1518.000,1.000,679.000,5.000,0
"03/10/08","13:01:47",23499.000,"cc",28260.170,6.00,6,0.100,18347.000,0.200,1763.000,0.300,1314.000,0.500,1468.000,1.000,607.000,5.000,0
"03/10/08","13:01:53",24675.000,"cc",28328.221,6.00,6,0.100,18919.000,0.200,2077.000,0.300,1428.000,0.500,1607.000,1.000,644.000,5.000,0
"03/10/08","13:01:59",24000.000,"cc",28362.523,6.00,6,0.100,18566.000,0.200,1956.000,0.300,1373.000,0.500,1492.000,1.000,613.000,5.000,0
"03/10/08","13:02:05",23780.000,"cc",28271.316,6.00,6,0.100,18366.000,0.200,1912.000,0.300,1357.000,0.500,1527.000,1.000,618.000,5.000,0
"03/10/08","13:02:11",25285.000,"cc",28269.578,6.00,6,0.100,19050.000,0.200,2175.000,0.300,1514.000,0.500,1801.000,1.000,745.000,5.000,0
"03/10/08","13:02:17",24244.000,"cc",28310.777,6.00,6,0.100,18847.000,0.200,1874.000,0.300,1337.000,0.500,1547.000,1.000,639.000,5.000,0
"03/10/08","13:02:23",23662.000,"cc",28326.768,6.00,6,0.100,18580.000,0.200,1853.000,0.300,1210.000,0.500,1445.000,1.000,574.000,5.000,0
"03/10/08","13:02:29",24496.000,"cc",28329.238,6.00,6,0.100,18834.000,0.200,2068.000,0.300,1435.000,0.500,1528.000,1.000,631.000,5.000,0
"03/10/08","13:02:35",23516.000,"cc",28280.252,6.00,6,0.100,18255.000,0.200,1839.000,0.300,1359.000,0.500,1450.000,1.000,613.000,5.000,0
"03/10/08","13:02:41",24500.000,"cc",28345.395,6.00,6,0.100,18887.000,0.200,1981.000,0.300,1415.000,0.500,1564.000,1.000,653.000,5.000,0
"03/10/08","13:02:47",24333.000,"cc",28313.455,6.00,6,0.100,18641.000,0.200,1993.000,0.300,1464.000,0.500,1641.000,1.000,594.000,5.000,0
"03/10/08","13:02:53",24103.000,"cc",28348.863,6.00,6,0.100,18743.000,0.200,1926.000,0.300,1332.000,0.500,1485.000,1.000,617.000,5.000,0
"03/10/08","13:02:59",25153.000,"cc",28242.781,6.00,6,0.100,19098.000,0.200,2198.000,0.300,1472.000,0.500,1731.000,1.000,654.000,5.000,0
"03/10/08","13:03:05",23657.000,"cc",28356.846,6.00,6,0.100,18337.000,0.200,1866.000,0.300,1323.000,0.500,1543.000,1.000,588.000,5.000,0
"03/10/08","13:03:11",24328.000,"cc",28311.387,6.00,6,0.100,18621.000,0.200,2067.000,0.300,1401.000,0.500,1585.000,1.000,654.000,5.000,0
"03/10/08","13:03:17",23743.000,"cc",28325.492,6.00,6,0.100,18478.000,0.200,1859.000,0.300,1291.000,0.500,1471.000,1.000,644.000,5.000,0
"03/10/08","13:03:23",24007.000,"cc",28347.465,6.00,6,0.100,18603.000,0.200,1935.000,0.300,1349.000,0.500,1550.000,1.000,570.000,5.000,0
"03/10/08","13:03:29",23884.000,"cc",28268.729,6.00,6,0.100,18467.000,0.200,1945.000,0.300,1291.000,0.500,1556.000,1.000,625.000,5.000,0
"03/10/08","13:03:35",24018.000,"cc",28290.115,6.00,6,0.100,18535.000,0.200,2040.000,0.300,1316.000,0.500,1514.000,1.000,613.000,5.000,0
"03/10/08","13:03:41",24847.000,"cc",28405.037,6.00,6,0.100,18903.000,0.200,2168.000,0.300,1553.000,0.500,1621.000,1.000,602.000,5.000,0
"03/10/08","13:03:47",23443.000,"cc",28309.574,6.00,6,0.100,18234.000,0.200,1887.000,0.300,1291.000,0.500,1443.000,1.000,588.000,5.000,0
"03/10/08","13:03:53",23349.000,"cc",28312.275,6.00,6,0.100,18206.000,0.200,1827.000,0.300,1277.000,0.500,1451.000,1.000,588.000,5.000,0
"03/10/08","13:03:59",23694.000,"cc",28265.164,6.00,6,0.100,18518.000,0.200,1873.000,0.300,1268.000,0.500,1446.000,1.000,589.000,5.000,0
"03/10/08","13:04:05",23786.000,"cc",28284.686,6.00,6,0.100,18672.000,0.200,1845.000,0.300,1276.000,0.500,1419.000,1.000,574.000,5.000,0
"03/10/08","13:04:11",23453.000,"cc",28359.568,6.00,6,0.100,18324.000,0.200,1896.000,0.300,1237.000,0.500,1484.000,1.000,512.000,5.000,0
"03/10/08","13:04:17",23787.000,"cc",28318.734,6.00,6,0.100,18319.000,0.200,1918.000,0.300,1381.000,0.500,1545.000,1.000,624.000,5.000,0
"03/10/08","13:04:23",23564.000,"cc",28375.561,6.00,6,0.100,18342.000,0.200,1825.000,0.300,1245.000,0.500,1549.000,1.000,603.000,5.000,0
"03/10/08","13:04:29",23519.000,"cc",28239.525,6.00,6,0.100,18434.000,0.200,1864.000,0.300,1208.000,0.500,1399.000,1.000,614.000,5.000,0
"03/10/08","13:04:35",23044.000,"cc",28312.178,6.00,6,0.100,18076.000,0.200,1724.000,0.300,1282.000,0.500,1453.000,1.000,509.000,5.000,0
"03/10/08","13:04:41",26881.000,"cc",28266.113,6.00,6,0.100,21274.000,0.200,2269.000,0.300,1350.000,0.500,1442.000,1.000,546.000,5.000,0
"03/10/08","13:04:47",27753.000,"cc",28362.963,6.00,6,0.100,20389.000,0.200,2715.000,0.300,1900.000,0.500,1970.000,1.000,779.000,5.000,0
"03/10/08","13:04:53",25913.000,"cc",28312.977,6.00,6,0.100,20064.000,0.200,2216.000,0.300,1498.000,0.500,1528.000,1.000,607.000,5.000,0
"03/10/08","13:04:59",25363.000,"cc",28325.174,6.00,6,0.100,20076.000,0.200,1999.000,0.300,1318.000,0.500,1402.000,1.000,568.000,5.000,0
"03/10/08","13:05:05",30143.000,"cc",28302.211,6.00,6,0.100,24600.000,0.200,2306.000,0.300,1319.000,0.500,1411.000,1.000,507.000,5.000,0
"03/10/08","13:05:11",25271.000,"cc",28328.424,6.00,6,0.100,20029.000,0.200,1987.000,0.300,1298.000,0.500,1407.000,1.000,550.000,5.000,0
"03/10/08","13:05:17",36234.000,"cc",28334.889,6.00,6,0.100,30166.000,0.200,2990.000,0.300,1293.000,0.500,1322.000,1.000,463.000,5.000,0
"03/10/08","13:05:23",29865.000,"cc",28270.496,6.00,6,0.100,24121.000,0.200,2503.000,0.300,1285.000,0.500,1408.000,1.000,548.000,5.000,0
"03/10/08","13:05:29",39418.000,"cc",28322.906,6.00,6,0.100,32716.000,0.200,3299.000,0.300,1377.000,0.500,1495.000,1.000,531.000,5.000,0
"03/10/08","13:05:35",106125.000,"cc",28363.885,6.00,6,0.100,93587.000,0.200,9157.000,0.300,1539.000,0.500,1362.000,1.000,480.000,5.000,0
"03/10/08","13:05:41",67658.000,"cc",28288.906,6.00,6,0.100,58207.000,0.200,5942.000,0.300,1535.000,0.500,1440.000,1.000,534.000,5.000,0
"03/10/08","13:05:47",53104.000,"cc",28293.895,6.00,6,0.100,44396.000,0.200,4901.000,0.300,1650.000,0.500,1554.000,1.000,603.000,5.000,0
"03/10/08","13:05:53",32278.000,"cc",28323.447,6.00,6,0.100,25959.000,0.200,2700.000,0.300,1473.000,0.500,1576.000,1.000,570.000,5.000,0
"03/10/08","13:05:59",59297.000,"cc",28325.361,6.00,6,0.100,50491.000,0.200,5096.000,0.300,1585.000,0.500,1549.000,1.000,576.000,5.000,0
"03/10/08","13:06:05",87012.000,"cc",28227.967,6.00,6,0.100,75945.000,0.200,7445.000,0.300,1626.000,0.500,1472.000,1.000,524.000,5.000,0
"03/10/08","13:06:11",86946.000,"cc",28387.859,6.00,6,0.100,75803.000,0.200,7500.000,0.300,1604.000,0.500,1462.000,1.000,577.000,5.000,0
"03/10/08","13:06:17",37114.000,"cc",28301.307,6.00,6,0.100,30047.000,0.200,3115.000,0.300,1573.000,0.500,1682.000,1.000,697.000,5.000,0
"03/10/08","13:06:23",41815.000,"cc",28281.250,6.00,6,0.100,34803.000,0.200,3405.000,0.300,1493.000,0.500,1495.000,1.000,619.000,5.000,0
"03/10/08","13:06:29",141661.000,"cc",28354.861,6.00,6,0.100,125065.000,0.200,12634.000,0.300,1839.000,0.500,1523.000,1.000,600.000,5.000,0
"03/10/08","13:06:35",185154.000,"cc",28329.752,6.00,6,0.100,163996.000,0.200,17296.000,0.300,1917.000,0.500,1405.000,1.000,540.000,5.000,0
"03/10/08","13:06:41",166606.000,"cc",28302.285,6.00,6,0.100,147622.000,0.200,15084.000,0.300,1978.000,0.500,1391.000,1.000,531.000,5.000,0
"03/10/08","13:06:47",75854.000,"cc",28278.316,6.00,6,0.100,66088.000,0.200,6430.000,0.300,1443.000,0.500,1381.000,1.000,512.000,5.000,0
"03/10/08","13:06:53",117805.000,"cc",28384.207,6.00,6,0.100,103871.000,0.200,10270.000,0.300,1690.000,0.500,1442.000,1.000,532.000,5.000,0
"03/10/08","13:06:59",116102.000,"cc",28368.002,6.00,6,0.100,102243.000,0.200,10192.000,0.300,1622.000,0.500,1462.000,1.000,583.000,5.000,0
"03/10/08","13:07:05",78965.000,"cc",28283.617,6.00,6,0.100,68905.000,0.200,6532.000,0.300,1535.000,0.500,1441.000,1.000,552.000,5.000,0
"03/10/08","13:07:11",100924.000,"cc",28340.787,6.00,6,0.100,88330.000,0.200,8713.000,0.300,1686.000,0.500,1605.000,1.000,590.000,5.000,0
"03/10/08","13:07:17",123917.000,"cc",28256.615,6.00,6,0.100,109833.000,0.200,10462.000,0.300,1632.000,0.500,1430.000,1.000,560.000,5.000,0
"03/10/08","13:07:23",135151.000,"cc",28282.711,6.00,6,0.100,119670.000,0.200,11783.000,0.300,1683.000,0.500,1474.000,1.000,541.000,5.000,0
"03/10/08","13:07:29",115334.000,"cc",28332.768,6.00,6,0.100,102034.000,0.200,9801.000,0.300,1559.000,0.500,1405.000,1.000,535.000,5.000,0
"03/10/08","13:07:35",119815.000,"cc",28326.766,6.00,6,0.100,105909.000,0.200,10307.000,0.300,1623.000,0.500,1449.000,1.000,527.000,5.000,0
"03/10/08","13:07:41",96188.000,"cc",28305.650,6.00,6,0.100,84309.000,0.200,8371.000,0.300,1567.000,0.500,1405.000,1.000,536.000,5.000,0
"03/10/08","13:07:47",92966.000,"cc",28355.291,6.00,6,0.100,81538.000,0.200,7834.000,0.300,1601.000,0.500,1423.000,1.000,570.000,5.000,0
"03/10/08","13:07:53",141178.000,"cc",28302.371,6.00,6,0.100,125032.000,0.200,12520.000,0.300,1667.000,0.500,1437.000,1.000,522.000,5.000,0
"03/10/08","13:07:59",188704.000,"cc",28332.156,6.00,6,0.100,166989.000,0.200,17607.000,0.300,1996.000,0.500,1513.000,1.000,599.000,5.000,0
"03/10/08","13:08:05",184626.000,"cc",28294.254,6.00,6,0.100,163744.000,0.200,16881.000,0.300,1960.000,0.500,1442.000,1.000,599.000,5.000,0
"03/10/08","13:08:11",142413.000,"cc",28277.266,6.00,6,0.100,125927.000,0.200,12698.000,0.300,1741.000,0.500,1486.000,1.000,561.000,5.000,0
"03/10/08","13:08:17",191108.000,"cc",28314.156,6.00,6,0.100,169553.000,0.200,17567.000,0.300,1922.000,0.500,1504.000,1.000,562.000,5.000,0
"03/10/08","13:08:23",186019.000,"cc",28329.125,6.00,6,0.100,164855.000,0.200,17065.000,0.300,1986.000,0.500,1492.000,1.000,621.000,5.000,0
"03/10/08","13:08:29",154423.000,"cc",28311.049,6.00,6,0.100,136424.000,0.200,13958.000,0.300,1858.000,0.500,1532.000,1.000,651.000,5.000,0
"03/10/08","13:08:35",182670.000,"cc",28305.631,6.00,6,0.100,161584.000,0.200,16821.000,0.300,1969.000,0.500,1662.000,1.000,634.000,5.000,0
"03/10/08","13:08:41",352026.000,"cc",28348.568,6.00,6,0.100,307932.000,0.200,39015.000,0.300,2895.000,0.500,1560.000,1.000,624.000,5.000,0
"03/10/08","13:08:47",271566.000,"cc",28330.104,6.00,6,0.100,228659.000,0.200,37863.000,0.300,2866.000,0.500,1557.000,1.000,621.000,5.000,0
"03/10/08","13:08:53",401954.000,"cc",28325.545,6.00,6,0.100,348050.000,0.200,48318.000,0.300,3373.000,0.500,1610.000,1.000,603.000,5.000,0
"03/10/08","13:08:59",347494.000,"cc",28301.090,6.00,6,0.100,291074.000,0.200,50713.000,0.300,3426.000,0.500,1653.000,1.000,628.000,5.000,0
"03/10/08","13:09:05",203778.000,"cc",28281.190,6.00,6,0.100,133996.000,0.200,63369.000,0.300,4072.000,0.500,1673.000,1.000,668.000,5.000,0
"03/10/08","13:09:11",380751.000,"cc",28355.639,6.00,6,0.100,316111.000,0.200,58190.000,0.300,3909.000,0.500,1785.000,1.000,756.000,5.000,0
"03/10/08","13:09:17",347473.000,"cc",28309.951,6.00,6,0.100,290311.000,0.200,50992.000,0.300,3652.000,0.500,1740.000,1.000,778.000,5.000,0
"03/10/08","13:09:23",344221.000,"cc",28280.203,6.00,6,0.100,299275.000,0.200,38943.000,0.300,3490.000,0.500,1809.000,1.000,703.000,5.000,1.000
"03/10/08","13:09:29",327408.000,"cc",28403.871,6.00,6,0.100,285604.000,0.200,36030.000,0.300,3297.000,0.500,1765.000,1.000,712.000,5.000,0
"03/10/08","13:09:35",286539.000,"cc",28304.615,6.00,6,0.100,240583.000,0.200,40157.000,0.300,3281.000,0.500,1820.000,1.000,698.000,5.000,0
"03/10/08","13:09:41",324820.000,"cc",28302.832,6.00,6,0.100,285294.000,0.200,34013.000,0.300,2958.000,0.500,1810.000,1.000,745.000,5.000,0
"03/10/08","13:09:47",296697.000,"cc",28287.596,6.00,6,0.100,261636.000,0.200,29938.000,0.300,2669.000,0.500,1746.000,1.000,708.000,5.000,0
"03/10/08","13:09:53",227143.000,"cc",28308.199,6.00,6,0.100,200607.000,0.200,21477.000,0.300,2430.000,0.500,1844.000,1.000,785.000,5.000,0
"03/10/08","13:09:59",179247.000,"cc",28389.629,6.00,6,0.100,159135.000,0.200,15598.000,0.300,2015.000,0.500,1725.000,1.000,774.000,5.000,0
"03/10/08","13:10:05",167389.000,"cc",28309.336,6.00,6,0.100,148140.000,0.200,14698.000,0.300,2085.000,0.500,1723.000,1.000,743.000,5.000,0
"03/10/08","13:10:11",121471.000,"cc",28292.533,6.00,6,0.100,107201.000,0.200,10370.000,0.300,1668.000,0.500,1528.000,1.000,704.000,5.000,0
"03/10/08","13:10:17",114884.000,"cc",28344.840,6.00,6,0.100,100956.000,0.200,9447.000,0.300,1895.000,0.500,1754.000,1.000,832.000,5.000,0
"03/10/08","13:10:23",281352.000,"cc",28300.736,6.00,6,0.100,247266.000,0.200,26955.000,0.300,3204.000,0.500,2651.000,1.000,1276.000,5.000,0
"03/10/08","13:10:29",176360.000,"cc",28290.166,6.00,6,0.100,156803.000,0.200,14738.000,0.300,2061.000,0.500,1906.000,1.000,851.000,5.000,1.000
"03/10/08","13:10:35",122821.000,"cc",28331.045,6.00,6,0.100,108755.000,0.200,9956.000,0.300,1679.000,0.500,1642.000,1.000,788.000,5.000,1.000
"03/10/08","13:10:41",136367.000,"cc",28294.643,6.00,6,0.100,119955.000,0.200,11323.000,0.300,2086.000,0.500,2042.000,1.000,961.000,5.000,0
"03/10/08","13:10:47",117426.000,"cc",28317.721,6.00,6,0.100,101909.000,0.200,9803.000,0.300,2312.000,0.500,2351.000,1.000,1051.000,5.000,0
"03/10/08","13:10:53",100149.000,"cc",28277.527,6.00,6,0.100,86584.000,0.200,8164.000,0.300,2160.000,0.500,2184.000,1.000,1057.000,5.000,0
"03/10/08","13:10:59",81335.000,"cc",28330.221,6.00,6,0.100,69792.000,0.200,6717.000,0.300,1910.000,0.500,1992.000,1.000,924.000,5.000,0
"03/10/08","13:11:05",81018.000,"cc",28322.250,6.00,6,0.100,69420.000,0.200,6599.000,0.300,1964.000,0.500,2099.000,1.000,936.000,5.000,0
"03/10/08","13:11:11",68431.000,"cc",28270.857,6.00,6,0.100,58069.000,0.200,5704.000,0.300,1815.000,0.500,1982.000,1.000,861.000,5.000,0
"03/10/08","13:11:17",48877.000,"cc",28363.492,6.00,6,0.100,41019.000,0.200,3938.000,0.300,1545.000,0.500,1651.000,1.000,724.000,5.000,0
"03/10/08","13:11:23",57077.000,"cc",28313.197,6.00,6,0.100,48332.000,0.200,4773.000,0.300,1561.000,0.500,1696.000,1.000,715.000,5.000,0
"03/10/08","13:11:29",103987.000,"cc",28323.072,6.00,6,0.100,90432.000,0.200,8837.000,0.300,1941.000,0.500,1944.000,1.000,833.000,5.000,0
"03/10/08","13:11:35",73159.000,"cc",28322.631,6.00,6,0.100,63245.000,0.200,5921.000,0.300,1615.000,0.500,1674.000,1.000,704.000,5.000,0
"03/10/08","13:11:41",72498.000,"cc",28309.832,6.00,6,0.100,63006.000,0.200,5855.000,0.300,1467.000,0.500,1492.000,1.000,678.000,5.000,0
"03/10/08","13:11:47",90334.000,"cc",28267.008,6.00,6,0.100,78862.000,0.200,7484.000,0.300,1642.000,0.500,1635.000,1.000,711.000,5.000,0
"03/10/08","13:11:53",140572.000,"cc",28289.336,6.00,6,0.100,124091.000,0.200,11990.000,0.300,1964.000,0.500,1737.000,1.000,790.000,5.000,0
"03/10/08","13:11:59",133383.000,"cc",28376.859,6.00,6,0.100,118156.000,0.200,11185.000,0.300,1692.000,0.500,1599.000,1.000,751.000,5.000,0
"03/10/08","13:12:05",62464.000,"cc",28274.574,6.00,6,0.100,53798.000,0.200,5034.000,0.300,1450.000,0.500,1537.000,1.000,645.000,5.000,0
"03/10/08","13:12:11",140932.000,"cc",28238.109,6.00,6,0.100,124970.000,0.200,11986.000,0.300,1721.000,0.500,1604.000,1.000,651.000,5.000,0
"03/10/08","13:12:17",126208.000,"cc",28372.305,6.00,6,0.100,111910.000,0.200,10423.000,0.300,1710.000,0.500,1482.000,1.000,683.000,5.000,0
"03/10/08","13:12:23",158999.000,"cc",28290.318,6.00,6,0.100,141238.000,0.200,13732.000,0.300,1765.000,0.500,1637.000,1.000,627.000,5.000,0
"03/10/08","13:12:29",132240.000,"cc",28363.250,6.00,6,0.100,117275.000,0.200,11004.000,0.300,1735.000,0.500,1567.000,1.000,659.000,5.000,0
"03/10/08","13:12:35",158575.000,"cc",28367.188,6.00,6,0.100,140791.000,0.200,13542.000,0.300,1859.000,0.500,1672.000,1.000,711.000,5.000,0
"03/10/08","13:12:41",105064.000,"cc",28307.723,6.00,6,0.100,92576.000,0.200,8636.000,0.300,1652.000,0.500,1545.000,1.000,655.000,5.000,0
"03/10/08","13:12:47",227705.000,"cc",28289.813,6.00,6,0.100,202379.000,0.200,21076.000,0.300,2024.000,0.500,1537.000,1.000,689.000,5.000,0
"03/10/08","13:12:53",263901.000,"cc",28318.504,6.00,6,0.100,231783.000,0.200,27502.000,0.300,2357.000,0.500,1597.000,1.000,662.000,5.000,0
"03/10/08","13:12:59",271233.000,"cc",28344.988,6.00,6,0.100,239821.000,0.200,26770.000,0.300,2305.000,0.500,1640.000,1.000,697.000,5.000,0
"03/10/08","13:13:05",248868.000,"cc",28336.568,6.00,6,0.100,220588.000,0.200,23944.000,0.300,2147.000,0.500,1557.000,1.000,632.000,5.000,0
"03/10/08","13:13:11",162332.000,"cc",28241.371,6.00,6,0.100,143052.000,0.200,14440.000,0.300,2092.000,0.500,1956.000,1.000,792.000,5.000,0
"03/10/08","13:13:17",180353.000,"cc",28272.846,6.00,6,0.100,159389.000,0.200,16153.000,0.300,2203.000,0.500,1807.000,1.000,801.000,5.000,0
"03/10/08","13:13:23",136444.000,"cc",28274.451,6.00,6,0.100,119470.000,0.200,12235.000,0.300,2146.000,0.500,1817.000,1.000,776.000,5.000,0
"03/10/08","13:13:29",70197.000,"cc",28296.377,6.00,6,0.100,60116.000,0.200,6019.000,0.300,1700.000,0.500,1684.000,1.000,678.000,5.000,0
"03/10/08","13:13:35",178968.000,"cc",28370.688,6.00,6,0.100,158072.000,0.200,16440.000,0.300,2125.000,0.500,1674.000,1.000,657.000,5.000,0
"03/10/08","13:13:41",113973.000,"cc",28347.166,6.00,6,0.100,100145.000,0.200,10009.000,0.300,1702.000,0.500,1502.000,1.000,615.000,5.000,0
"03/10/08","13:13:47",168738.000,"cc",28364.248,6.00,6,0.100,149110.000,0.200,15600.000,0.300,1930.000,0.500,1524.000,1.000,573.000,5.000,1.000
"03/10/08","13:13:53",130984.000,"cc",28286.668,6.00,6,0.100,115003.000,0.200,11947.000,0.300,1787.000,0.500,1590.000,1.000,657.000,5.000,0
"03/10/08","13:13:59",226076.000,"cc",28310.352,6.00,6,0.100,198961.000,0.200,22325.000,0.300,2384.000,0.500,1729.000,1.000,677.000,5.000,0
"03/10/08","13:14:05",135003.000,"cc",28254.949,6.00,6,0.100,118541.000,0.200,12501.000,0.300,1827.000,0.500,1504.000,1.000,630.000,5.000,0
"03/10/08","13:14:11",107435.000,"cc",28338.199,6.00,6,0.100,94632.000,0.200,9264.000,0.300,1565.000,0.500,1387.000,1.000,587.000,5.000,0
"03/10/08","13:14:17",175824.000,"cc",28358.963,6.00,6,0.100,155246.000,0.200,16527.000,0.300,1995.000,0.500,1510.000,1.000,546.000,5.000,0
"03/10/08","13:14:23",63900.000,"cc",28342.201,6.00,6,0.100,54982.000,0.200,5330.000,0.300,1470.000,0.500,1509.000,1.000,609.000,5.000,0
"03/10/08","13:14:29",46065.000,"cc",28245.299,6.00,6,0.100,38939.000,0.200,3666.000,0.300,1408.000,0.500,1421.000,1.000,631.000,5.000,0
"03/10/08","13:14:35",47044.000,"cc",28227.299,6.00,6,0.100,39938.000,0.200,3831.000,0.300,1316.000,0.500,1409.000,1.000,550.000,5.000,0
"03/10/08","13:14:41",38955.000,"cc",28505.791,6.00,6,0.100,32506.000,0.200,3181.000,0.300,1324.000,0.500,1394.000,1.000,550.000,5.000,0
"03/10/08","13:14:47",34296.000,"cc",28269.391,6.00,6,0.100,28212.000,0.200,2768.000,0.300,1377.000,0.500,1373.000,1.000,566.000,5.000,0
"03/10/08","13:14:53",31051.000,"cc",28319.283,6.00,6,0.100,25165.000,0.200,2568.000,0.300,1278.000,0.500,1470.000,1.000,570.000,5.000,0
"03/10/08","13:14:59",25734.000,"cc",28323.533,6.00,6,0.100,20485.000,0.200,2040.000,0.300,1234.000,0.500,1443.000,1.000,532.000,5.000,0
"03/10/08","13:15:05",28709.000,"cc",28285.104,6.00,6,0.100,22539.000,0.200,2581.000,0.300,1385.000,0.500,1593.000,1.000,611.000,5.000,0
"03/10/08","13:15:11",24249.000,"cc",28325.037,6.00,6,0.100,19159.000,0.200,1963.000,0.300,1234.000,0.500,1339.000,1.000,554.000,5.000,0
"03/10/08","13:15:17",23921.000,"cc",28321.658,6.00,6,0.100,18955.000,0.200,1885.000,0.300,1198.000,0.500,1329.000,1.000,554.000,5.000,0
"03/10/08","13:15:23",24014.000,"cc",28259.908,6.00,6,0.100,18940.000,0.200,1956.000,0.300,1242.000,0.500,1301.000,1.000,575.000,5.000,0
"03/10/08","13:15:29",23497.000,"cc",28305.086,6.00,6,0.100,18663.000,0.200,1888.000,0.300,1184.000,0.500,1267.000,1.000,495.000,5.000,0
"03/10/08","13:15:35",23842.000,"cc",28287.947,6.00,6,0.100,18808.000,0.200,1828.000,0.300,1183.000,0.500,1428.000,1.000,595.000,5.000,0
"03/10/08","13:15:41",23674.000,"cc",28351.815,6.00,6,0.100,18595.000,0.200,1902.000,0.300,1261.000,0.500,1342.000,1.000,574.000,5.000,0
"03/10/08","13:15:47",23381.000,"cc",28258.936,6.00,6,0.100,18376.000,0.200,1926.000,0.300,1231.000,0.500,1315.000,1.000,533.000,5.000,0
"03/10/08","13:15:53",23682.000,"cc",28304.773,6.00,6,0.100,18774.000,0.200,1893.000,0.300,1163.000,0.500,1317.000,1.000,535.000,5.000,0
"03/10/08","13:15:59",22996.000,"cc",28411.705,6.00,6,0.100,18236.000,0.200,1822.000,0.300,1146.000,0.500,1233.000,1.000,559.000,5.000,0
"03/10/08","13:16:05",23061.000,"cc",28273.580,6.00,6,0.100,18299.000,0.200,1789.000,0.300,1124.000,0.500,1346.000,1.000,503.000,5.000,0
"03/10/08","13:16:11",22848.000,"cc",28341.871,6.00,6,0.100,18146.000,0.200,1799.000,0.300,1070.000,0.500,1317.000,1.000,516.000,5.000,0
"03/10/08","13:16:17",22777.000,"cc",28284.705,6.00,6,0.100,18171.000,0.200,1724.000,0.300,1119.000,0.500,1232.000,1.000,531.000,5.000,0